Wind_Speed
11 12 12 12 12 11 9 8 7 7 6 6 5 4 3 2 2 2 2 2 3 3 2 1 0 2 4 6 7 8 8 7 7 6 4 4 3 3 2 4 5 5 4 4 3 2 1 1 1 3 4 4 4 4 3 4 3 2 1 2 5 6 6 7 8 8 8 10 9 8 9 9 11 12 11 12 11 11 12 12 11 11 10 11 13 14 15 15
11 11 11 11 10 9 9 8 7 7 6 5 3 2 2 1 1 2 2 2 2 1 1 1 3 5 6 7 8 9 9 8 8 7 5 4 3 2 2 3 3 3 3 2 2 1 1 1 2 4 4 4 4 4 5 4 3 3 1 2 7 8 8 8 8 9 9 9 9 9 10 10 13 13 13 13 12 13 13 12 12 12 11 13 15 15 15 15
11 11 10 10 9 9 9 8 8 7 5 4 2 2 1 2 3 3 3 3 2 2 2 3 5 7 8 9 9 9 9 9 8 7 6 4 3 2 1 2 2 2 2 1 1 1 2 2 3 4 4 4 4 5 5 4 3 3 2 3 8 8 7 7 7 7 8 9 10 11 11 12 14 14 14 13 13 16 13 11 13 13 12 15 16 15 15 15
11 11 10 10 10 9 9 8 7 6 4 3 2 2 3 4 5 5 4 4 3 2 3 4 6 8 9 10 10 10 9 8 8 6 5 4 2 2 1 1 1 1 0 1 2 2 3 3 3 3 3 4 4 5 5 5 4 3 4 5 7 6 6 7 7 7 8 9 11 11 13 14 15 16 15 14 16 15 12 12 14 14 14 16 17 14 13 15
12 11 10 10 9 8 7 7 6 5 3 3 3 4 5 6 6 6 5 4 3 2 3 4 7 9 10 10 10 10 9 7 7 6 5 3 2 2 1 1 1 2 2 2 2 2 3 3 3 3 3 4 5 6 5 5 4 4 5 6 6 6 6 6 7 8 8 9 11 12 14 15 16 17 15 17 17 12 12 15 15 15 15 16 17 16 13 15
11 10 9 8 7 7 6 6 5 4 4 4 5 5 6 6 6 6 5 4 3 2 3 4 7 9 10 10 10 11 8 5 6 6 4 3 2 2 1 2 2 2 2 2 2 2 2 2 2 3 4 4 5 5 5 5 5 5 6 6 5 5 6 6 8 8 9 10 11 13 14 15 17 17 17 19 16 10 15 18 16 16 16 16 17 18 17 16
10 9 8 7 6 6 6 6 5 5 4 5 6 6 6 6 7 6 5 4 4 3 3 4 7 9 10 10 11 10 5 4 6 5 4 3 2 2 2 2 2 1 1 2 2 1 1 2 3 4 4 5 5 5 5 6 6 6 6 6 4 5 6 7 8 8 9 10 11 13 14 15 17 18 19 17 14 12 18 19 17 17 16 17 17 17 18 17
10 9 9 8 8 8 7 7 6 5 4 4 5 6 6 7 7 6 5 5 4 4 4 6 8 9 10 11 11 7 3 4 6 4 4 3 2 2 1 1 1 1 1 2 2 1 2 3 3 4 4 5 5 5 6 6 6 6 6 5 5 6 7 8 9 9 10 11 12 13 13 16 17 19 19 15 14 17 19 19 18 17 16 17 16 16 17 17
10 10 10 10 10 9 8 7 5 4 4 4 6 6 7 7 7 6 6 6 5 4 5 7 8 9 10 10 9 5 2 4 5 4 4 3 3 2 0 1 1 2 1 1 1 1 2 3 3 4 5 5 6 6 6 6 6 6 6 6 6 7 8 9 9 10 11 12 13 13 14 16 17 20 18 12 15 18 18 18 17 16 15 15 16 17 17 17
12 11 11 10 9 8 7 6 5 4 4 4 6 7 8 9 8 7 7 7 6 5 5 6 7 8 9 9 7 6 4 4 4 3 3 2 2 1 0 1 1 2 1 1 2 2 2 3 4 4 5 5 6 7 7 6 7 7 7 6 6 8 9 10 10 11 12 12 13 14 15 16 18 19 14 11 14 15 15 16 16 16 14 14 16 17 17 17
12 11 10 10 8 7 6 5 5 5 5 5 7 9 11 10 9 8 8 7 7 6 5 5 5 6 7 6 6 5 4 3 3 3 2 1 1 1 1 1 2 2 3 3 4 3 3 4 4 4 4 5 6 7 7 6 6 7 7 7 7 9 10 11 11 12 13 13 13 15 17 18 20 18 12 12 14 13 14 14 15 15 14 15 16 16 17 16
11 10 10 9 8 7 7 7 7 7 6 7 9 11 12 11 9 8 8 8 8 7 6 6 6 6 6 5 3 3 2 2 2 1 0 0 1 1 3 3 3 4 4 5 4 2 3 4 4 4 5 6 6 7 7 6 7 7 8 7 8 11 12 12 13 13 14 14 14 16 19 16 17 17 12 13 15 12 14 14 14 16 15 15 16 16 16 15
10 10 9 9 10 10 10 10 10 9 9 10 11 12 12 11 10 9 10 10 9 8 7 7 7 7 6 3 1 1 1 1 2 2 2 2 2 3 5 4 4 3 3 4 3 3 4 4 4 4 5 6 7 7 6 6 7 7 8 8 9 12 13 13 13 15 16 16 15 17 19 15 13 17 15 14 15 14 15 15 15 17 16 16 16 16 15 14
10 10 10 11 12 11 12 12 12 12 12 12 13 13 12 12 11 11 10 10 9 8 8 8 7 6 6 3 1 1 1 1 2 3 4 4 3 4 4 3 3 3 4 4 4 5 5 5 5 5 5 6 7 6 5 6 7 8 9 9 10 10 12 15 14 15 18 18 17 18 22 18 11 14 19 16 14 15 17 16 16 17 17 17 16 15 14 13
13 13 13 13 12 12 13 14 14 14 14 15 14 13 12 12 11 11 10 10 10 10 10 10 8 8 7 4 2 2 2 3 4 5 4 3 3 4 3 3 4 5 5 5 5 6 6 6 6 6 5 6 6 6 5 7 8 8 8 7 10 9 12 18 16 15 18 19 18 18 22 20 10 13 20 19 16 18 19 18 18 18 18 17 16 14 14 13
14 14 13 12 12 12 13 14 16 16 17 17 17 16 15 14 13 13 12 12 12 12 12 11 10 9 6 4 4 4 5 6 7 6 5 5 7 6 5 6 7 7 7 7 8 7 7 7 7 7 5 6 6 6 6 7 8 10 10 8 10 13 13 16 17 17 17 20 21 19 23 25 18 16 21 21 21 22 22 20 19 19 19 17 16 15 15 15
14 13 12 11 11 11 12 13 15 16 17 18 18 18 18 17 17 16 15 15 15 15 14 12 12 10 6 5 7 8 10 10 9 8 8 9 9 9 9 9 8 8 9 9 9 8 8 7 6 6 5 6 7 5 6 6 6 8 11 11 12 15 15 15 18 20 19 20 23 23 29 30 24 20 21 23 25 26 26 24 20 20 20 18 17 17 16 17
12 12 11 11 11 11 12 13 14 16 17 18 19 19 19 19 18 17 16 16 15 16 14 10 10 9 8 9 11 11 12 11 10 10 11 11 11 10 10 9 9 9 9 9 9 9 8 6 6 6 6 7 7 6 6 7 8 9 10 12 12 15 18 16 19 21 21 24 26 27 32 33 28 25 22 22 26 30 31 28 24 22 21 20 19 17 16 17
11 11 10 10 10 11 11 12 14 16 17 18 18 18 17 16 16 15 14 14 14 14 12 10 10 11 10 12 13 12 12 11 11 12 11 11 11 10 10 10 9 9 9 9 9 9 8 8 7 6 6 8 8 6 7 8 10 11 12 14 14 17 18 16 19 22 22 26 29 29 34 36 34 31 27 23 24 30 35 33 29 27 24 22 20 17 16 17
13 13 13 12 12 12 13 14 15 16 17 18 17 17 18 16 15 16 17 17 17 17 17 15 15 15 14 13 13 13 12 12 12 11 11 11 10 10 10 9 9 9 9 8 8 9 9 9 8 6 6 7 7 6 7 8 9 11 12 13 15 17 18 17 20 22 20 26 29 28 33 39 37 34 32 29 26 29 36 37 34 31 27 24 23 19 17 18
16 17 17 18 18 19 20 20 21 21 21 21 21 21 20 18 17 17 18 20 20 19 19 17 15 15 14 13 13 12 11 11 11 10 9 9 9 9 9 9 9 10 9 9 9 10 10 9 8 7 8 7 7 7 8 8 9 10 11 14 14 15 19 20 20 21 21 25 29 29 34 39 39 36 31 27 25 25 29 34 34 34 32 29 27 23 19 19
16 17 18 20 20 21 22 23 24 25 25 24 23 22 20 18 17 15 16 19 20 18 17 16 14 13 12 12 11 10 10 11 11 9 9 9 9 9 9 9 10 9 10 10 10 10 9 9 10 10 10 9 9 10 10 10 11 11 12 14 13 14 19 21 21 24 24 27 33 33 34 38 37 32 23 18 19 19 20 24 26 29 32 33 31 26 21 20
15 16 18 20 21 22 23 23 24 24 24 24 22 20 19 18 17 14 15 18 18 16 15 14 13 12 11 11 11 10 11 11 10 9 9 9 9 10 10 10 10 10 11 11 11 9 6 10 13 12 12 12 11 12 12 13 13 13 14 13 13 17 21 21 24 28 27 29 34 32 35 39 32 23 19 19 22 20 18 20 20 22 25 29 32 29 24 22
14 16 18 21 23 24 23 22 22 22 20 19 18 16 16 16 15 14 14 16 15 13 12 12 11 10 9 9 9 10 11 10 9 9 10 10 11 11 11 12 11 12 12 12 13 11 8 11 14 14 14 14 14 14 14 15 16 15 16 16 17 21 22 23 28 30 30 31 29 28 33 32 22 18 20 22 24 22 18 18 18 19 19 19 24 28 26 24
14 15 18 21 23 22 20 18 17 16 14 13 12 11 12 12 11 11 12 12 12 12 10 10 10 10 9 8 8 8 9 11 10 11 11 11 12 12 12 13 13 14 14 14 14 12 12 14 16 16 16 16 16 16 16 17 17 15 16 19 21 24 25 26 28 30 29 23 20 22 20 19 22 21 18 20 22 20 17 16 16 17 17 14 17 23 25 24
15 15 17 18 17 15 13 12 11 10 9 9 9 8 8 7 7 8 9 9 10 12 11 9 10 11 10 10 9 8 8 11 12 12 12 12 13 13 13 13 13 15 15 16 14 12 15 18 17 17 18 18 18 18 17 17 19 17 17 20 23 25 27 28 28 27 23 17 23 26 13 16 32 28 19 20 18 15 15 16 17 16 16 14 13 17 20 22
14 15 15 14 11 8 7 6 7 7 7 7 8 7 6 5 3 3 4 4 6 11 11 10 10 10 11 10 11 10 9 11 12 12 13 13 14 14 15 15 13 15 17 16 12 12 19 20 18 19 20 21 19 18 18 19 19 18 19 22 24 26 28 30 29 28 26 24 29 27 11 13 24 24 24 23 15 12 12 13 14 14 15 15 15 16 19 21
11 12 12 10 7 5 4 5 6 6 7 7 7 7 6 5 3 1 1 1 4 9 10 11 10 11 11 11 12 11 10 12 12 13 14 14 15 14 15 15 14 17 16 14 13 16 21 20 18 21 22 21 19 18 19 20 21 21 23 25 25 28 32 31 30 28 24 20 18 14 8 7 13 20 23 19 14 15 15 15 15 14 14 15 16 18 20 21
10 10 9 8 7 5 5 5 6 6 7 7 7 7 7 6 3 4 4 2 4 7 9 11 10 10 11 11 12 12 12 13 13 14 13 14 14 14 15 14 15 17 13 13 18 20 20 20 20 21 20 20 19 18 21 22 23 24 25 27 29 32 32 26 24 22 14 11 10 8 4 3 13 24 20 11 16 22 23 22 15 11 12 14 15 17 18 21
11 10 9 9 8 7 6 6 6 7 7 6 6 7 8 7 4 2 2 3 4 7 9 10 10 11 11 12 13 12 12 12 14 14 13 15 15 14 15 14 16 16 10 14 23 21 20 20 18 17 18 19 19 20 22 22 23 25 25 29 32 30 24 19 18 15 8 6 3 4 4 3 8 22 20 11 19 24 21 19 12 9 12 14 15 16 19 26
12 11 10 9 9 8 7 7 7 7 7 7 7 7 9 10 8 3 1 2 4 7 9 10 11 11 12 13 13 12 12 12 15 14 13 15 13 13 15 16 20 17 10 19 26 22 22 19 15 17 21 21 21 21 22 23 24 23 23 27 28 21 15 13 11 6 4 3 0 2 9 5 7 19 21 16 22 19 14 16 14 13 14 14 17 19 24 33
14 13 12 11 10 9 8 8 8 8 8 8 8 8 8 8 9 7 4 2 3 6 8 9 10 11 11 13 13 12 11 13 15 14 14 15 13 16 19 20 24 20 14 22 25 22 23 18 14 20 24 21 20 23 23 23 22 23 23 21 17 12 10 8 5 5 6 5 5 10 13 11 17 22 19 21 26 15 9 16 18 19 19 18 20 23 30 35
15 15 14 13 12 11 10 10 9 8 8 9 8 9 8 5 5 8 7 5 4 5 8 9 10 11 11 12 14 13 11 14 17 15 15 15 14 19 21 20 24 22 19 22 21 21 21 15 16 23 24 18 18 23 22 19 21 24 21 14 10 8 7 7 6 8 8 6 11 17 16 14 17 16 16 27 27 9 7 20 23 25 21 17 20 27 34 36
16 15 14 14 13 12 12 11 11 10 9 9 8 9 10 7 5 7 8 7 6 5 8 10 10 10 12 13 15 15 14 15 18 16 15 14 15 19 20 19 22 23 22 19 17 18 14 10 18 25 23 18 19 21 20 21 24 21 15 11 10 8 6 7 8 9 11 14 19 19 12 9 13 18 23 24 14 3 13 27 27 24 21 20 27 33 34 33
15 15 14 14 13 12 11 11 11 11 10 10 9 8 8 7 6 7 8 8 7 7 7 9 11 11 12 14 16 17 16 16 17 16 14 14 15 18 17 18 21 23 21 17 16 18 11 10 19 24 19 18 22 23 23 25 20 14 14 13 11 9 9 13 16 17 16 15 15 14 13 15 22 26 20 11 5 9 21 28 24 23 25 28 32 32 31 30
14 13 13 12 12 11 11 10 10 10 11 11 11 11 11 9 7 7 8 8 10 10 9 9 11 12 13 15 16 17 16 16 17 15 14 14 15 16 16 18 22 22 21 20 19 17 13 16 21 22 18 21 25 26 26 25 17 14 17 14 12 15 16 15 16 17 14 10 10 14 17 23 27 22 11 6 10 18 21 22 24 27 29 30 31 30 31 31
12 12 11 11 11 10 10 10 9 9 9 9 11 14 14 12 11 9 9 10 10 12 11 10 11 13 14 15 16 17 16 16 15 13 13 14 14 15 16 18 21 20 21 22 20 17 19 25 26 22 20 26 28 27 26 23 18 16 14 14 16 18 14 9 8 9 9 8 10 17 22 25 24 14 6 10 21 24 23 26 32 33 31 30 31 32 34 35
10 10 10 9 9 9 9 9 8 8 9 8 12 16 14 13 12 11 10 10 10 11 12 12 12 13 14 15 15 16 16 14 14 13 12 13 14 14 16 19 20 20 21 22 21 20 21 24 24 22 25 29 28 24 22 19 20 19 15 16 18 12 8 9 8 8 9 7 8 15 22 25 21 12 12 25 33 28 27 34 36 33 31 31 34 38 40 43
9 8 8 9 8 9 9 8 8 8 7 7 11 15 13 12 13 12 11 11 10 11 12 13 12 12 13 15 15 16 15 12 14 15 12 13 15 14 16 20 20 20 22 21 20 22 20 15 16 23 30 29 24 22 20 19 20 19 17 18 18 11 10 13 14 13 11 8 9 11 13 19 24 21 25 34 33 27 30 36 36 33 32 34 37 44 50 52
9 7 8 10 9 9 9 10 10 8 8 10 12 14 12 12 12 11 11 11 11 11 12 12 12 12 14 15 15 16 14 10 14 16 12 15 17 14 16 20 20 21 21 20 19 21 20 12 15 25 31 25 19 18 19 19 15 13 16 17 17 15 13 15 17 17 13 7 8 8 7 21 31 29 30 32 29 29 32 32 33 33 33 35 39 48 55 57
9 8 11 11 10 10 10 10 10 8 9 13 14 13 12 12 11 11 11 11 11 11 11 12 13 14 14 15 15 17 13 9 14 16 14 17 16 14 17 19 20 21 20 20 20 19 19 15 18 26 30 25 19 16 16 14 10 13 20 22 21 19 15 13 11 12 12 10 11 9 8 24 33 29 26 28 28 30 29 26 30 35 36 39 44 49 55 59
9 9 12 11 10 11 10 8 9 9 11 14 13 12 12 11 11 11 11 11 12 11 12 13 14 14 15 15 15 17 14 10 13 16 15 16 16 15 18 18 19 20 19 19 18 18 20 18 19 26 28 24 20 18 14 9 11 19 25 26 27 23 15 11 9 13 18 18 20 14 10 24 34 27 22 28 30 30 26 25 34 40 41 44 46 49 54 59
8 10 11 10 12 13 9 8 10 11 12 13 12 12 12 12 12 12 12 12 12 12 12 13 15 15 15 16 15 17 17 12 13 16 16 15 17 17 17 18 18 18 19 18 18 20 18 14 17 25 26 22 18 14 10 8 14 24 26 27 30 27 20 18 17 18 20 22 23 13 10 22 32 26 24 30 31 27 26 31 39 42 44 46 48 52 56 56
8 9 10 12 13 11 7 10 12 11 12 13 12 12 12 12 12 12 12 13 13 12 13 14 15 15 16 17 16 17 18 14 13 16 17 16 17 16 16 17 17 17 18 18 19 20 15 12 16 17 17 17 14 10 10 15 21 23 24 29 32 31 28 24 20 16 16 20 20 12 12 24 30 27 29 33 31 29 33 39 41 42 47 51 53 55 53 48
8 8 10 13 13 8 7 12 13 11 12 11 11 13 12 12 12 12 12 13 13 13 13 15 16 16 17 17 16 17 18 16 14 16 17 16 16 16 16 16 16 16 16 17 19 19 17 18 15 9 8 10 11 11 16 24 29 27 29 33 33 33 31 25 17 11 12 16 18 17 20 28 32 30 33 35 32 33 40 44 42 44 50 54 53 50 46 40
7 8 9 11 12 9 10 14 13 12 11 10 11 14 13 12 13 12 12 13 14 14 14 15 16 16 17 17 17 17 18 17 16 17 17 16 16 16 16 17 16 15 16 17 19 19 21 22 18 11 11 14 19 22 22 24 27 30 34 32 29 29 29 26 18 13 14 17 20 24 26 31 36 37 38 39 34 36 43 45 44 48 53 54 50 44 39 35
7 10 9 9 11 12 13 15 14 13 12 10 12 15 14 13 13 12 13 13 14 14 14 15 16 17 18 19 18 18 19 17 16 17 17 16 17 16 16 17 15 15 16 17 18 20 23 24 22 20 20 23 27 26 24 23 25 32 35 29 25 26 27 28 23 18 18 16 19 29 33 34 42 45 43 39 34 38 44 43 45 52 54 51 47 41 37 35
11 14 14 13 13 14 15 17 16 15 13 12 14 15 13 13 12 12 13 13 13 14 14 15 16 17 18 19 19 19 20 18 18 18 17 17 17 16 16 16 15 15 16 16 18 21 21 22 26 28 30 32 29 24 24 26 28 33 30 23 26 29 28 30 26 18 16 17 22 34 40 40 46 48 42 37 34 38 41 43 49 53 50 47 43 39 37 36
18 18 18 17 17 17 17 17 17 15 14 13 14 14 13 12 12 12 12 12 12 13 14 14 15 16 17 18 18 19 19 20 21 20 19 18 17 16 17 15 14 16 16 16 18 19 20 23 27 30 35 37 30 25 27 30 32 29 18 15 26 30 26 29 26 17 17 25 32 38 41 45 47 43 38 38 37 38 42 48 52 50 45 42 38 37 37 36
19 19 18 17 18 19 18 17 16 13 13 14 13 13 12 12 12 12 11 12 12 13 13 14 15 15 16 17 17 17 17 19 21 21 20 18 16 16 16 15 15 16 16 17 18 18 20 25 27 30 36 36 30 26 29 32 30 20 8 14 28 27 23 26 24 20 25 34 39 39 40 46 44 35 34 38 38 41 47 52 52 47 42 38 35 36 37 36
17 19 18 15 16 18 17 16 15 12 12 14 13 13 12 12 12 12 12 12 13 13 13 14 14 14 15 16 16 16 17 17 17 18 18 17 16 16 15 15 16 17 17 18 18 19 22 25 28 30 33 35 32 30 32 31 22 11 9 21 28 24 23 24 21 25 32 36 38 39 41 44 39 34 38 41 41 45 50 52 50 46 41 36 34 36 36 36
17 19 17 13 14 17 16 15 14 11 13 14 13 13 13 12 12 12 12 13 13 14 14 14 15 15 15 16 17 17 17 17 16 15 14 13 14 13 12 13 15 17 18 19 18 20 22 24 27 26 27 33 34 32 35 28 12 8 16 24 25 23 25 26 25 30 35 35 36 39 40 40 38 38 41 42 45 50 51 51 50 46 40 34 34 35 36 37
Wind_Direction
183 186 190 192 195 196 197 200 203 208 213 217 228 245 266 288 301 291 273 258 253 260 272 280 120 135 151 165 170 167 170 174 177 174 164 156 135 122 132 142 141 144 145 142 142 141 154 228 317 331 334 336 326 317 325 314 290 256 233 217 241 243 233 232 227 220 233 252 252 248 253 252 256 264 263 261 266 269 271 277 280 285 292 292 297 306 307 308
173 177 180 182 184 186 187 192 199 208 215 222 240 258 270 276 234 220 206 200 215 223 217 162 136 148 160 169 170 168 174 178 179 179 174 171 155 139 142 137 138 144 141 140 147 168 223 307 324 327 326 323 312 307 308 301 286 262 201 221 247 244 239 234 235 238 244 254 250 249 253 251 256 260 257 258 265 266 271 281 285 295 304 298 300 303 302 304
168 170 173 175 178 181 184 192 201 208 217 231 249 237 210 178 176 174 163 166 186 185 152 147 148 155 162 167 169 170 177 181 182 183 182 178 166 154 147 133 136 144 138 153 219 283 309 317 318 318 314 307 301 303 303 290 281 270 205 231 250 247 247 245 251 255 252 257 258 256 254 251 255 257 255 258 261 264 276 285 287 299 304 297 298 297 297 299
161 164 168 172 177 181 185 192 197 206 220 226 203 174 159 157 164 162 154 161 178 174 151 152 160 160 163 168 168 171 177 181 185 189 189 182 175 175 162 139 138 158 208 287 299 320 323 316 311 312 303 296 303 308 301 285 282 273 237 248 257 251 249 249 255 259 260 263 262 261 258 254 254 255 255 256 259 269 283 283 285 298 299 295 296 294 291 293
159 162 166 171 175 179 183 188 195 202 202 173 150 143 146 157 162 160 156 163 177 178 162 158 165 164 163 167 168 171 173 177 189 195 194 189 188 195 200 215 266 282 288 303 311 327 321 310 309 313 311 306 312 309 298 289 283 275 262 263 263 256 253 257 262 261 264 264 264 265 261 258 256 256 255 255 264 277 278 277 285 292 293 292 293 292 290 289
156 158 161 164 167 171 173 177 178 172 155 134 130 135 151 165 163 163 164 164 174 180 167 163 166 165 164 166 167 168 173 191 198 195 195 200 208 214 244 260 273 286 295 302 305 320 308 314 328 324 320 315 310 300 292 294 285 278 276 269 263 266 269 272 271 265 265 264 265 265 263 261 258 259 258 260 273 279 269 278 285 285 289 288 288 290 291 290
150 151 150 151 151 151 151 153 151 144 134 126 125 133 153 168 166 166 166 161 169 169 165 163 163 165 166 165 165 172 198 222 201 195 201 209 227 235 259 266 274 286 310 323 314 325 319 331 331 314 314 312 305 293 289 293 289 285 277 270 270 278 283 281 277 271 271 271 269 268 266 263 261 262 263 269 281 269 264 277 283 282 285 283 285 286 287 289
145 142 139 137 133 132 134 135 136 135 132 127 126 134 152 167 169 165 155 153 162 161 156 155 160 165 168 169 171 182 243 225 197 201 206 209 215 212 232 265 292 294 319 341 324 329 330 332 320 305 310 310 300 293 294 294 290 287 276 271 277 282 286 282 280 279 278 278 275 273 269 267 266 267 271 277 275 264 265 274 278 280 278 278 282 282 284 288
138 137 134 130 126 124 125 127 130 132 133 131 129 137 152 165 168 155 140 142 148 149 152 154 162 167 170 177 175 171 205 202 201 207 206 212 203 188 208 306 299 281 311 5 311 315 318 313 306 301 309 305 297 295 297 292 286 283 272 271 280 283 285 283 283 282 282 282 279 277 273 272 271 271 277 280 265 263 267 271 274 274 272 275 279 280 285 290
135 134 131 128 125 122 122 123 124 128 129 126 128 135 149 162 161 144 132 132 133 135 146 155 164 168 173 179 168 153 162 185 201 202 206 215 213 242 278 316 298 291 352 333 283 288 288 294 294 299 307 304 301 297 294 291 286 278 270 271 278 283 283 283 284 283 283 284 281 279 276 275 274 272 278 278 265 264 266 265 267 268 271 276 278 283 287 292
136 134 132 128 125 123 122 124 127 130 128 122 128 135 143 151 144 133 128 125 122 120 121 131 144 156 161 158 154 153 156 178 200 205 217 228 269 326 2 6 353 358 349 300 275 280 283 291 294 295 302 303 305 300 292 291 286 277 273 272 275 282 284 284 285 284 284 284 282 281 279 276 275 277 277 271 267 264 262 262 264 268 274 277 280 287 289 295
135 133 133 129 126 124 121 122 123 125 124 118 121 126 130 131 126 126 127 122 120 116 113 119 126 136 133 116 129 157 155 188 200 182 177 323 337 21 27 22 12 3 338 300 284 296 312 308 298 297 300 299 303 301 293 291 286 276 275 280 284 286 285 285 286 285 284 285 285 286 288 285 280 283 277 267 269 264 262 265 268 273 278 280 284 287 292 299
135 135 134 130 123 115 111 109 111 115 116 113 114 117 120 122 126 129 128 126 124 118 116 117 122 124 110 79 65 174 162 192 177 122 67 20 7 32 27 18 9 356 345 332 339 356 333 310 300 303 306 306 302 297 295 296 290 279 280 285 289 293 293 291 289 287 285 284 285 288 291 292 290 289 278 268 271 267 266 268 270 276 280 283 285 288 294 300
121 127 126 121 111 101 99 100 105 109 109 110 112 115 118 122 127 128 125 125 119 115 111 107 109 105 91 82 123 147 140 147 130 77 44 14 17 40 25 9 18 13 14 9 8 5 336 316 315 309 310 316 303 295 302 303 293 285 290 293 291 291 290 291 293 290 288 286 284 283 285 289 294 287 280 278 276 269 270 271 270 274 279 281 283 286 295 300
105 109 112 108 100 95 95 97 100 103 104 106 108 110 114 117 120 121 119 115 111 109 105 102 100 91 83 88 106 116 126 110 82 57 42 38 55 56 39 29 37 26 18 12 9 3 343 331 323 309 313 319 307 308 319 312 302 294 297 301 299 290 281 290 297 291 287 288 286 280 281 288 289 273 278 284 280 271 271 271 269 270 273 276 280 286 294 301
99 102 104 101 97 94 93 95 97 99 101 103 104 106 106 108 108 107 106 105 106 102 97 96 92 83 78 85 91 97 97 82 71 65 63 69 66 61 52 41 35 27 21 15 10 1 348 339 323 314 322 320 315 326 325 311 305 303 300 289 291 295 288 292 298 295 290 288 288 282 278 285 290 282 282 283 278 273 271 271 268 267 269 273 279 287 294 300
96 97 97 97 95 93 92 95 97 98 99 99 99 100 99 100 100 100 100 100 101 97 91 89 88 85 91 99 92 86 81 74 72 71 65 64 60 55 51 44 38 32 26 21 13 3 353 345 326 323 332 324 326 336 323 306 298 306 309 300 296 300 297 293 294 296 297 291 290 287 283 289 298 295 287 280 276 273 271 273 271 265 268 274 277 285 293 298
96 96 97 97 95 95 96 97 98 97 96 96 96 97 98 98 99 99 100 98 97 96 93 92 94 94 94 93 88 82 78 73 69 65 60 57 53 48 46 40 37 31 25 22 14 7 357 350 342 344 345 335 336 332 307 296 292 290 293 298 299 298 300 299 294 297 300 295 292 289 288 296 303 299 292 282 277 275 274 274 273 267 267 271 275 284 294 301
101 103 103 103 103 104 106 105 104 102 100 98 97 97 96 97 100 101 99 98 97 97 96 96 99 99 94 88 84 80 76 70 64 59 55 53 49 45 42 37 34 28 22 17 12 8 1 2 7 355 339 331 332 319 296 290 292 288 286 292 294 295 302 304 297 301 301 294 295 296 295 300 302 301 299 292 281 276 276 275 273 271 268 267 272 283 297 307
99 101 100 101 103 105 108 108 108 107 104 101 98 96 92 91 95 98 100 100 98 98 97 95 94 93 90 84 80 75 71 67 62 56 52 51 48 44 42 38 34 29 20 13 9 6 5 13 14 351 336 335 336 325 313 306 300 300 299 298 302 304 311 314 304 307 306 296 299 304 302 302 302 304 304 300 290 276 274 276 276 275 273 268 270 280 296 308
99 100 99 100 100 101 103 104 105 105 103 100 97 93 91 91 93 96 100 100 97 94 92 89 87 85 84 79 76 73 70 67 60 53 48 46 44 40 38 32 31 29 18 9 6 5 7 12 6 351 350 349 345 340 336 331 320 317 313 311 317 313 313 317 311 314 315 304 305 309 305 304 306 309 310 304 296 284 277 277 278 277 275 271 269 276 292 304
103 105 106 107 106 106 106 106 107 106 103 100 95 93 94 94 94 95 97 95 91 88 86 85 82 79 78 73 71 68 65 62 53 43 37 38 37 33 30 24 22 21 12 5 4 2 356 351 350 348 346 343 344 344 340 338 332 328 323 318 317 310 311 315 314 317 318 311 311 312 307 307 311 312 316 316 311 308 295 287 284 279 276 274 271 272 285 300
106 112 114 115 115 114 112 110 107 104 103 101 100 102 102 100 99 98 92 88 85 84 82 78 74 70 69 66 64 61 58 54 45 35 29 28 27 24 21 17 15 13 7 1 360 356 331 330 339 340 339 339 338 338 335 334 332 330 327 315 303 309 315 314 314 317 316 313 312 311 308 312 319 321 326 331 327 326 312 299 294 285 280 276 270 268 278 294
109 118 123 122 121 119 115 110 104 99 98 99 104 108 108 107 104 97 86 80 76 74 69 63 58 53 51 55 52 50 50 44 35 29 23 18 17 14 10 8 7 5 2 356 351 346 329 327 334 334 333 334 332 333 332 330 333 329 321 314 308 314 316 310 311 313 314 313 312 314 315 315 322 327 324 325 329 328 316 304 301 295 291 282 269 268 277 291
115 122 129 128 124 118 111 104 96 92 87 88 95 100 106 107 102 94 84 72 58 51 51 46 44 40 36 38 32 34 39 31 26 22 17 14 11 7 4 2 1 360 356 350 346 342 337 332 331 330 329 329 328 329 328 328 333 324 310 313 314 313 312 309 310 312 315 314 306 315 322 309 308 314 314 319 328 330 327 321 317 310 306 297 279 274 280 290
128 130 135 133 126 114 103 92 84 80 70 72 78 82 95 96 97 94 82 73 46 35 40 37 37 35 31 33 26 25 29 21 20 18 14 11 7 6 4 358 356 356 353 349 345 341 339 334 328 327 326 323 322 322 324 327 328 317 309 315 316 314 314 311 309 309 310 302 297 305 301 289 305 314 320 325 333 340 341 337 328 320 311 304 289 277 278 287
136 137 140 141 136 115 94 77 69 64 53 60 64 66 73 65 87 103 80 85 30 23 32 33 36 32 29 33 27 29 28 16 16 14 10 7 5 5 2 358 355 354 353 350 345 336 335 333 327 326 324 322 320 317 318 322 320 312 312 317 317 319 318 313 308 303 299 298 300 303 282 272 298 315 325 326 338 353 347 338 328 320 310 303 297 287 286 290
134 136 137 139 138 117 93 70 62 57 52 55 52 53 52 34 44 79 77 99 10 19 26 27 33 28 28 30 24 28 27 16 13 8 6 4 3 1 358 359 356 352 353 354 347 337 336 334 329 326 324 321 320 316 313 316 315 311 313 316 317 319 317 312 305 299 299 301 300 295 280 266 284 310 323 321 338 353 340 328 321 315 311 306 303 299 296 296
126 129 128 127 125 111 95 76 64 58 50 46 41 39 30 20 45 87 91 71 16 23 22 21 25 22 25 26 21 24 22 17 12 6 5 4 2 0 359 1 357 353 358 3 356 347 341 338 333 330 326 323 321 318 314 314 313 311 312 313 315 317 316 311 301 298 297 290 283 266 262 282 293 310 322 321 336 340 328 323 325 320 318 310 305 301 300 304
115 117 116 115 112 101 91 80 67 60 49 39 36 30 26 30 43 81 80 52 34 29 23 24 26 24 26 25 23 22 22 19 12 9 9 5 3 2 2 1 357 359 3 360 357 351 345 342 340 341 337 330 325 320 319 318 314 313 313 316 321 323 319 306 296 297 284 266 256 220 268 304 297 312 319 321 334 333 323 327 335 326 318 309 301 298 312 323
103 103 104 102 99 94 87 78 69 61 50 42 39 38 43 47 45 39 55 61 41 25 25 30 30 30 30 27 27 27 26 21 13 13 10 6 6 2 4 3 3 10 7 351 353 354 352 350 350 351 342 334 329 326 326 324 320 318 320 325 329 327 316 295 282 271 253 269 18 276 311 310 254 296 310 326 340 334 326 340 340 325 320 310 299 294 315 332
92 92 93 92 90 87 81 76 69 60 52 46 43 47 55 52 46 49 68 67 23 15 27 32 30 33 31 30 31 27 27 19 14 16 10 8 10 7 10 10 10 14 1 348 351 353 355 352 348 347 343 339 335 333 332 328 324 323 324 329 328 324 318 300 275 269 276 298 317 310 317 297 271 286 305 331 338 331 339 357 348 332 323 310 305 302 314 329
84 84 84 83 83 81 78 75 69 62 57 52 54 60 65 65 50 52 61 63 51 37 37 36 35 36 31 29 28 24 24 18 14 14 10 11 13 12 15 14 11 9 357 351 350 349 350 348 345 344 342 344 339 335 333 324 320 319 318 321 320 320 321 305 301 302 291 297 307 307 308 293 287 303 320 326 326 319 2 360 351 340 330 319 319 318 322 331
81 79 80 79 79 78 78 77 73 70 66 63 71 74 72 78 80 70 66 66 67 50 41 42 40 37 32 27 24 20 19 17 13 11 10 14 13 12 15 11 7 4 359 357 350 346 344 334 342 343 337 338 338 335 329 321 322 318 313 320 314 304 297 295 305 310 304 308 306 301 298 284 294 318 330 330 323 312 352 352 350 344 335 325 323 323 326 334
81 80 78 77 78 78 78 80 78 76 75 75 84 91 85 83 88 79 63 58 56 43 42 45 37 33 30 24 21 18 15 14 10 7 12 18 14 13 12 6 2 1 1 359 348 344 329 304 331 339 335 335 336 334 330 327 327 318 316 326 316 299 292 288 291 292 293 302 299 280 277 292 303 319 342 4 7 348 347 348 349 344 336 327 322 323 328 332
83 81 79 77 77 76 77 81 83 85 84 85 90 92 90 85 82 74 58 53 50 40 37 37 32 28 25 20 19 15 11 10 9 10 15 15 11 11 6 0 360 359 359 355 349 345 324 309 330 341 341 341 338 334 330 327 323 315 315 320 314 309 304 289 285 290 284 278 283 280 289 306 314 325 2 41 354 347 346 343 339 336 332 328 325 327 330 330
82 81 80 78 76 76 78 81 86 91 90 92 92 86 83 81 76 70 63 57 51 40 34 34 29 23 21 20 18 11 8 13 16 16 15 10 6 3 360 358 358 356 354 351 348 345 328 320 334 346 342 341 339 334 332 330 329 328 319 318 325 324 319 300 282 295 296 283 291 301 307 313 317 326 350 342 338 339 336 335 335 330 327 326 327 329 330 329
77 77 77 76 75 73 72 76 80 84 86 86 87 84 80 77 70 65 60 53 46 38 35 36 30 23 20 18 14 10 11 18 19 16 14 8 1 358 356 355 354 351 350 348 343 342 335 324 331 343 339 340 343 341 340 338 335 337 334 334 340 337 320 307 293 292 302 294 290 305 311 310 311 319 323 328 332 332 331 333 332 329 328 328 329 331 332 332
66 71 74 70 72 70 67 71 66 70 79 79 82 83 79 73 67 60 54 47 40 36 35 35 30 25 21 16 11 10 13 20 18 15 15 6 358 358 356 351 351 349 346 347 342 339 342 326 316 334 342 344 347 345 340 331 328 336 343 344 341 327 302 299 293 284 286 290 291 306 317 304 302 310 316 323 330 331 331 331 329 330 332 332 333 336 338 337
57 63 70 66 66 66 66 68 63 67 80 78 79 82 77 71 63 55 50 44 39 37 37 33 27 25 20 15 13 12 14 18 13 15 15 5 1 359 355 350 349 348 345 347 345 341 345 326 299 327 345 348 345 341 336 331 333 340 341 337 329 319 308 299 290 280 277 288 294 311 314 292 301 317 320 322 329 329 330 332 330 331 331 332 334 336 338 339
51 55 65 64 61 62 64 65 64 68 75 74 76 77 72 67 59 53 48 41 37 36 34 29 24 22 18 16 17 16 17 15 12 16 12 5 4 356 352 350 348 349 347 347 348 346 344 324 300 321 339 344 343 347 345 341 346 343 335 333 329 322 313 303 300 297 300 297 291 302 287 288 309 332 327 321 327 327 331 333 326 322 321 326 330 332 335 336
42 51 63 64 57 56 58 62 62 61 66 69 71 70 67 63 57 52 43 36 36 33 30 27 22 21 20 20 19 18 20 20 14 16 12 5 3 354 351 353 350 351 350 347 348 346 340 328 314 323 336 342 342 349 352 341 339 341 339 339 337 330 315 294 294 312 312 297 289 289 260 287 317 335 323 323 329 326 328 325 317 316 319 324 327 329 330 331
37 51 62 62 56 53 50 55 58 56 61 65 65 63 61 56 50 46 39 35 34 31 29 25 22 22 21 20 19 18 20 22 14 12 10 4 359 355 353 354 352 352 351 348 347 346 344 336 324 327 335 339 335 340 348 333 333 339 341 341 336 329 320 305 294 295 293 283 285 286 253 286 313 322 314 322 328 323 320 316 314 319 323 326 327 327 328 328
32 49 59 58 56 53 46 53 55 54 59 61 60 59 55 50 47 43 39 35 33 32 28 24 22 21 19 18 17 15 15 17 12 7 4 359 356 355 353 352 353 352 351 348 344 344 345 337 328 325 333 339 335 340 345 333 332 333 332 332 329 325 321 312 301 289 275 274 280 275 261 283 303 312 311 319 325 320 318 318 319 326 330 330 329 329 330 331
28 44 61 61 56 49 51 58 56 53 56 57 59 59 53 50 47 42 39 34 31 30 25 22 20 16 15 14 12 12 11 9 7 2 358 355 353 354 352 350 351 350 350 347 342 342 339 334 332 322 321 331 327 330 334 329 328 329 329 329 326 322 318 311 303 284 269 282 281 267 270 289 303 311 312 319 323 319 320 323 324 328 332 332 331 331 333 335
31 48 69 71 63 56 65 69 62 56 59 59 62 62 55 50 46 41 37 32 28 25 21 19 16 12 12 10 6 7 6 3 0 357 356 354 351 352 350 348 348 348 348 345 341 340 337 335 337 326 315 319 318 323 333 331 325 326 329 329 328 326 321 312 302 281 281 296 291 284 288 297 305 312 317 322 322 319 322 326 326 328 330 330 331 333 336 337
55 66 77 82 75 69 73 74 67 62 64 63 65 63 55 50 47 40 35 30 25 22 17 14 12 10 9 6 3 2 359 358 358 356 356 354 350 349 347 345 345 346 346 344 341 339 335 335 339 330 321 325 326 329 339 336 326 323 324 327 334 335 324 314 309 305 306 296 286 302 311 307 309 317 323 322 319 319 323 325 324 327 329 329 330 333 335 335
82 82 82 85 86 80 75 72 66 63 62 60 63 62 55 50 46 38 34 28 22 20 17 12 9 7 6 3 360 356 354 354 356 355 355 351 347 347 345 342 341 343 345 344 340 338 333 333 337 331 324 327 332 337 341 336 328 324 322 327 337 333 322 319 322 326 316 284 284 312 319 312 313 320 323 319 316 317 321 321 323 327 329 329 330 332 333 333
85 84 82 82 83 79 75 71 68 64 61 59 62 62 57 52 45 38 33 27 20 19 14 10 7 5 4 0 356 355 354 352 350 349 349 348 346 344 343 340 339 342 344 342 340 339 335 333 336 331 326 331 340 344 341 337 333 330 323 329 334 327 317 318 322 325 316 299 303 316 316 311 317 323 320 316 314 315 317 320 324 328 330 329 330 331 330 329
78 79 77 74 73 73 72 70 68 65 62 58 58 59 57 51 45 37 28 24 20 16 11 8 7 3 359 356 354 354 354 349 345 341 341 344 344 343 343 341 339 340 341 341 341 340 336 333 335 333 329 337 348 343 335 336 333 328 317 327 330 324 315 315 314 313 310 305 308 313 310 312 320 322 313 311 313 317 321 323 325 330 331 330 329 328 326 324
66 69 67 56 59 67 67 66 64 60 57 55 52 53 50 44 42 33 23 20 16 11 8 5 4 1 356 354 354 353 351 348 343 339 337 340 341 341 339 336 337 338 339 340 339 340 337 333 337 335 328 334 344 337 334 340 334 311 316 327 327 322 315 312 307 307 309 308 309 310 310 314 319 316 312 314 317 322 323 322 323 328 330 328 326 323 321 320
55 58 58 42 46 63 65 62 61 52 48 49 45 44 42 36 34 28 18 15 11 7 5 1 0 358 353 354 355 352 351 349 346 343 339 338 339 336 330 334 337 334 336 339 337 338 339 332 334 333 321 327 339 336 336 343 340 321 330 327 325 327 323 316 309 310 313 311 309 311 315 319 318 314 314 317 317 318 318 318 321 326 326 324 321 319 316 314
Height
3128 3129 3130 3130 3131 3131 3132 3132 3132 3133 3133 3133 3133 3133 3133 3133 3133 3132 3132 3132 3132 3132 3132 3132 3132 3132 3133 3133 3133 3133 3134 3134 3134 3135 3135 3135 3134 3134 3135 3134 3134 3134 3134 3134 3134 3133 3133 3133 3133 3132 3132 3132 3132 3132 3131 3131 3130 3130 3129 3130 3130 3129 3127 3127 3126 3125 3125 3123 3123 3123 3122 3123 3122 3122 3122 3121 3121 3121 3121 3121 3121 3120 3119 3118 3117 3116 3115 3114
3129 3129 3130 3130 3131 3131 3132 3132 3132 3133 3133 3133 3133 3133 3133 3133 3133 3133 3133 3132 3132 3132 3132 3132 3132 3132 3133 3133 3133 3133 3134 3134 3135 3135 3135 3135 3135 3135 3135 3135 3134 3134 3134 3134 3134 3134 3133 3133 3133 3132 3132 3132 3132 3132 3131 3131 3130 3129 3129 3130 3129 3127 3126 3126 3125 3124 3124 3123 3122 3122 3122 3122 3121 3121 3121 3120 3121 3120 3120 3120 3119 3118 3118 3117 3116 3115 3114 3113
3129 3129 3130 3131 3131 3132 3132 3132 3132 3132 3132 3133 3133 3133 3133 3133 3133 3133 3133 3133 3132 3132 3132 3132 3132 3133 3133 3133 3133 3134 3134 3134 3135 3135 3135 3135 3135 3135 3135 3135 3135 3134 3134 3134 3134 3133 3133 3133 3132 3132 3132 3132 3132 3131 3131 3130 3130 3129 3129 3129 3127 3126 3126 3125 3124 3124 3123 3123 3122 3122 3121 3121 3121 3120 3120 3120 3120 3119 3119 3119 3118 3117 3117 3116 3114 3114 3113 3112
3129 3130 3130 3131 3131 3132 3132 3132 3132 3132 3133 3133 3133 3133 3133 3134 3133 3133 3133 3133 3132 3132 3132 3132 3133 3133 3133 3133 3134 3134 3135 3135 3135 3135 3135 3135 3135 3135 3135 3135 3135 3135 3134 3134 3134 3133 3133 3133 3133 3132 3132 3132 3132 3131 3130 3130 3129 3129 3128 3128 3126 3126 3125 3124 3124 3123 3123 3123 3122 3121 3121 3120 3120 3119 3119 3119 3118 3118 3118 3118 3116 3116 3115 3114 3113 3112 3112 3111
3130 3130 3131 3131 3132 3132 3132 3132 3133 3133 3133 3133 3134 3134 3134 3134 3134 3134 3134 3133 3133 3133 3133 3133 3133 3133 3134 3134 3134 3135 3135 3136 3136 3136 3136 3136 3136 3135 3135 3135 3135 3135 3134 3134 3134 3133 3133 3133 3133 3133 3132 3132 3131 3131 3130 3130 3129 3128 3127 3127 3126 3125 3125 3124 3123 3123 3122 3122 3121 3121 3120 3120 3119 3118 3118 3118 3117 3117 3117 3116 3115 3115 3114 3113 3112 3111 3110 3109
3130 3131 3131 3131 3132 3132 3132 3133 3133 3133 3133 3134 3134 3134 3134 3134 3134 3134 3134 3134 3133 3133 3133 3134 3134 3134 3134 3135 3135 3135 3136 3136 3136 3136 3136 3136 3136 3136 3135 3135 3135 3135 3134 3134 3134 3133 3133 3133 3133 3132 3132 3132 3131 3130 3130 3129 3129 3128 3127 3126 3126 3125 3124 3124 3123 3122 3122 3121 3121 3120 3120 3119 3118 3118 3117 3116 3116 3117 3115 3114 3114 3113 3112 3112 3111 3110 3108 3107
3131 3131 3131 3132 3132 3132 3133 3133 3133 3133 3134 3134 3135 3135 3134 3134 3134 3134 3134 3134 3134 3134 3134 3134 3135 3135 3135 3135 3136 3136 3136 3136 3136 3136 3136 3136 3136 3136 3136 3135 3135 3135 3134 3134 3134 3134 3133 3133 3133 3132 3132 3131 3131 3130 3129 3129 3128 3127 3127 3126 3125 3125 3124 3123 3123 3122 3122 3121 3120 3119 3119 3118 3117 3116 3116 3115 3115 3116 3114 3113 3112 3111 3111 3110 3109 3108 3107 3106
3131 3132 3132 3132 3133 3133 3133 3133 3134 3134 3134 3134 3135 3135 3134 3134 3134 3134 3135 3135 3135 3135 3135 3135 3135 3136 3136 3136 3136 3136 3136 3137 3137 3137 3137 3136 3136 3136 3136 3135 3135 3135 3135 3134 3134 3134 3133 3133 3133 3133 3132 3131 3131 3130 3129 3128 3128 3127 3126 3126 3125 3124 3124 3123 3122 3122 3121 3120 3119 3118 3118 3117 3116 3115 3114 3114 3114 3113 3112 3111 3110 3110 3109 3108 3107 3107 3105 3104
3132 3132 3133 3133 3133 3134 3134 3134 3134 3134 3134 3135 3135 3135 3134 3134 3134 3135 3136 3136 3136 3136 3136 3136 3136 3136 3136 3137 3136 3137 3137 3137 3138 3137 3137 3137 3137 3136 3136 3136 3136 3135 3135 3134 3134 3134 3133 3133 3133 3132 3132 3131 3131 3130 3129 3128 3128 3127 3126 3125 3125 3124 3123 3123 3122 3121 3120 3119 3119 3118 3117 3116 3115 3113 3112 3112 3112 3111 3110 3109 3109 3108 3107 3106 3106 3105 3104 3102
3133 3133 3133 3134 3134 3134 3134 3134 3134 3134 3134 3134 3135 3135 3135 3135 3135 3136 3136 3136 3137 3137 3137 3137 3137 3137 3137 3137 3137 3137 3138 3138 3138 3138 3138 3137 3137 3137 3136 3136 3136 3136 3135 3134 3134 3134 3133 3133 3133 3132 3132 3131 3131 3130 3129 3128 3128 3127 3126 3125 3125 3124 3123 3122 3121 3121 3120 3119 3118 3117 3116 3115 3113 3112 3111 3110 3109 3109 3108 3107 3107 3106 3105 3105 3104 3102 3102 3100
3133 3134 3134 3134 3135 3135 3135 3135 3135 3135 3135 3135 3135 3135 3136 3136 3136 3136 3137 3137 3137 3137 3138 3138 3138 3138 3139 3139 3139 3139 3139 3139 3139 3139 3138 3138 3138 3138 3137 3137 3136 3136 3135 3135 3134 3134 3134 3133 3133 3132 3132 3131 3130 3130 3129 3128 3128 3127 3126 3125 3124 3124 3123 3122 3121 3120 3119 3118 3117 3116 3114 3113 3111 3110 3110 3109 3107 3107 3106 3106 3105 3104 3103 3103 3101 3100 3099 3098
3134 3135 3135 3135 3136 3136 3136 3136 3136 3135 3135 3135 3135 3136 3136 3136 3137 3137 3138 3138 3138 3139 3139 3139 3139 3140 3140 3140 3140 3140 3140 3140 3140 3140 3139 3139 3138 3138 3137 3137 3136 3136 3136 3135 3135 3134 3134 3133 3133 3132 3132 3131 3131 3130 3129 3128 3128 3127 3126 3125 3124 3123 3122 3121 3121 3120 3119 3117 3117 3115 3112 3111 3110 3108 3108 3107 3106 3106 3105 3104 3103 3102 3101 3100 3099 3098 3097 3096
3136 3136 3136 3137 3137 3137 3137 3136 3136 3136 3136 3135 3136 3136 3136 3137 3138 3138 3139 3139 3139 3140 3140 3140 3140 3141 3141 3141 3141 3142 3142 3141 3141 3140 3140 3139 3139 3138 3137 3137 3137 3137 3136 3136 3135 3134 3134 3134 3133 3132 3132 3131 3131 3130 3129 3128 3128 3127 3126 3125 3124 3123 3122 3121 3120 3119 3118 3117 3116 3115 3112 3109 3109 3107 3106 3106 3105 3104 3103 3103 3102 3100 3099 3098 3097 3096 3095 3095
3137 3137 3137 3138 3138 3138 3138 3138 3137 3137 3137 3137 3137 3137 3138 3138 3139 3139 3140 3140 3140 3141 3141 3141 3142 3142 3142 3142 3143 3143 3143 3143 3142 3141 3140 3140 3139 3139 3138 3138 3138 3137 3137 3136 3135 3135 3135 3134 3133 3133 3132 3132 3131 3130 3129 3129 3128 3127 3126 3125 3125 3124 3122 3120 3120 3119 3118 3116 3116 3115 3111 3107 3108 3107 3104 3104 3104 3103 3102 3101 3100 3099 3098 3097 3096 3095 3094 3093
3138 3138 3139 3139 3140 3140 3140 3139 3139 3139 3139 3139 3139 3139 3140 3140 3140 3141 3141 3141 3142 3142 3142 3143 3143 3143 3144 3144 3144 3144 3144 3143 3142 3142 3141 3141 3140 3140 3139 3139 3138 3138 3137 3137 3136 3135 3135 3135 3134 3133 3133 3132 3132 3131 3130 3129 3128 3128 3127 3126 3125 3124 3123 3120 3119 3119 3117 3115 3115 3115 3110 3106 3107 3106 3103 3103 3102 3101 3100 3099 3098 3097 3096 3095 3094 3093 3092 3091
3140 3140 3141 3141 3141 3141 3141 3141 3141 3141 3141 3141 3141 3141 3141 3142 3142 3142 3143 3143 3143 3143 3144 3144 3144 3144 3145 3145 3145 3145 3144 3144 3143 3143 3142 3142 3141 3140 3140 3139 3139 3138 3138 3137 3137 3136 3136 3135 3135 3134 3133 3133 3132 3131 3130 3130 3129 3128 3128 3127 3125 3124 3123 3120 3119 3118 3117 3115 3113 3113 3108 3104 3106 3106 3103 3102 3101 3099 3098 3097 3097 3095 3094 3094 3092 3091 3091 3090
3142 3142 3142 3142 3143 3143 3143 3143 3143 3143 3143 3143 3143 3143 3143 3143 3144 3144 3144 3145 3145 3144 3145 3145 3145 3145 3146 3147 3146 3146 3145 3144 3144 3144 3143 3142 3142 3141 3141 3140 3139 3139 3138 3138 3137 3137 3136 3136 3135 3135 3134 3133 3133 3132 3131 3131 3130 3129 3128 3127 3125 3124 3123 3121 3119 3117 3116 3114 3112 3111 3106 3102 3104 3104 3103 3101 3099 3097 3096 3095 3095 3094 3092 3091 3091 3090 3089 3088
3143 3143 3144 3144 3144 3144 3144 3144 3144 3144 3144 3144 3144 3144 3145 3145 3145 3146 3146 3146 3146 3146 3146 3147 3147 3147 3148 3148 3147 3146 3146 3146 3145 3144 3144 3143 3142 3142 3141 3141 3140 3140 3139 3139 3138 3138 3137 3137 3136 3135 3134 3133 3133 3132 3132 3132 3131 3130 3128 3127 3125 3123 3122 3121 3119 3116 3115 3113 3111 3109 3104 3100 3100 3101 3101 3100 3097 3094 3092 3093 3092 3091 3091 3090 3089 3088 3087 3086
3145 3145 3145 3145 3145 3145 3146 3146 3146 3146 3146 3146 3146 3147 3147 3147 3147 3147 3147 3147 3147 3147 3148 3148 3148 3148 3149 3149 3148 3147 3147 3146 3146 3145 3145 3144 3143 3143 3142 3142 3142 3141 3141 3140 3139 3139 3138 3137 3136 3136 3135 3134 3133 3133 3132 3132 3130 3129 3128 3127 3125 3123 3121 3120 3118 3115 3115 3111 3108 3107 3102 3098 3097 3097 3097 3097 3096 3092 3089 3089 3089 3089 3089 3088 3087 3086 3085 3084
3147 3147 3146 3146 3147 3147 3147 3147 3147 3148 3148 3148 3148 3148 3148 3149 3149 3149 3149 3149 3149 3149 3149 3150 3150 3150 3149 3149 3149 3148 3148 3147 3147 3146 3146 3145 3145 3144 3144 3143 3143 3142 3142 3141 3140 3140 3139 3138 3137 3136 3136 3134 3133 3133 3132 3131 3130 3129 3127 3126 3124 3122 3120 3119 3117 3114 3114 3110 3106 3105 3101 3095 3093 3093 3093 3093 3093 3091 3087 3085 3085 3086 3086 3085 3084 3084 3083 3082
3149 3149 3148 3148 3149 3149 3149 3149 3149 3149 3150 3150 3150 3150 3150 3152 3152 3152 3152 3151 3151 3151 3151 3151 3151 3151 3150 3150 3150 3149 3149 3148 3148 3148 3147 3147 3146 3145 3145 3144 3144 3143 3143 3142 3141 3140 3139 3138 3137 3137 3136 3135 3134 3133 3131 3130 3129 3128 3126 3124 3123 3121 3119 3117 3115 3113 3112 3108 3104 3104 3099 3092 3091 3090 3090 3089 3088 3087 3085 3083 3082 3083 3083 3083 3082 3081 3080 3080
3151 3151 3151 3151 3151 3151 3151 3151 3151 3151 3151 3151 3151 3152 3153 3154 3154 3155 3154 3153 3152 3152 3152 3152 3152 3152 3152 3151 3151 3150 3150 3149 3149 3149 3149 3148 3147 3147 3146 3145 3145 3144 3143 3142 3141 3140 3139 3139 3138 3137 3136 3135 3134 3132 3131 3130 3128 3127 3125 3123 3122 3120 3118 3115 3114 3112 3110 3106 3101 3100 3096 3090 3089 3088 3087 3086 3085 3084 3083 3081 3081 3080 3080 3079 3079 3079 3078 3078
3153 3153 3153 3153 3153 3153 3153 3153 3153 3153 3153 3152 3153 3154 3155 3155 3156 3156 3156 3154 3154 3154 3154 3154 3154 3154 3153 3153 3152 3152 3151 3150 3151 3151 3150 3149 3148 3148 3147 3146 3145 3144 3143 3142 3142 3141 3140 3139 3138 3137 3136 3134 3133 3132 3130 3129 3127 3126 3124 3123 3122 3120 3117 3114 3111 3110 3108 3105 3100 3097 3093 3087 3085 3085 3084 3084 3083 3082 3082 3080 3079 3079 3078 3077 3077 3077 3076 3076
3155 3155 3155 3154 3154 3154 3155 3155 3155 3155 3155 3156 3156 3157 3157 3157 3157 3157 3157 3156 3156 3156 3156 3155 3155 3155 3155 3154 3154 3153 3152 3152 3152 3152 3151 3150 3149 3148 3147 3147 3146 3145 3144 3143 3142 3141 3141 3139 3138 3137 3135 3134 3133 3131 3129 3128 3126 3125 3123 3122 3120 3118 3117 3114 3110 3108 3106 3103 3100 3096 3090 3084 3083 3083 3082 3083 3081 3080 3080 3078 3078 3076 3075 3075 3074 3075 3075 3074
3156 3156 3157 3156 3156 3156 3156 3157 3157 3157 3158 3158 3159 3159 3158 3158 3158 3158 3157 3157 3158 3158 3157 3157 3156 3156 3156 3155 3155 3154 3154 3153 3153 3152 3151 3150 3150 3149 3148 3147 3146 3145 3144 3143 3142 3141 3140 3139 3138 3136 3135 3133 3132 3130 3129 3127 3126 3125 3123 3121 3120 3117 3116 3113 3110 3107 3104 3101 3098 3098 3093 3083 3081 3084 3083 3082 3080 3078 3077 3076 3076 3075 3073 3073 3073 3073 3074 3073
3157 3157 3158 3158 3158 3158 3158 3159 3159 3159 3159 3160 3160 3160 3159 3159 3159 3159 3158 3158 3159 3159 3159 3158 3158 3158 3157 3157 3156 3155 3155 3154 3154 3153 3152 3151 3150 3149 3148 3147 3146 3145 3144 3143 3142 3141 3140 3139 3137 3136 3134 3133 3132 3130 3129 3127 3125 3124 3122 3121 3119 3117 3114 3112 3110 3107 3104 3101 3097 3099 3098 3087 3079 3081 3082 3081 3080 3078 3077 3076 3075 3074 3072 3071 3071 3072 3072 3071
3159 3159 3159 3160 3160 3160 3160 3160 3160 3160 3160 3160 3161 3160 3160 3160 3159 3159 3159 3159 3161 3161 3160 3160 3159 3159 3159 3158 3157 3156 3156 3155 3154 3153 3152 3151 3150 3149 3148 3147 3147 3146 3145 3144 3142 3141 3140 3139 3137 3136 3134 3132 3131 3130 3128 3127 3125 3123 3122 3120 3118 3116 3113 3110 3108 3106 3103 3100 3096 3094 3097 3091 3081 3080 3081 3079 3079 3078 3077 3076 3075 3073 3071 3070 3070 3070 3069 3068
3160 3160 3160 3161 3161 3161 3161 3161 3161 3161 3161 3161 3161 3161 3161 3160 3160 3160 3159 3161 3163 3163 3162 3161 3161 3160 3160 3159 3158 3157 3157 3156 3155 3154 3153 3152 3151 3150 3149 3148 3147 3146 3145 3144 3143 3142 3140 3138 3137 3135 3133 3132 3131 3130 3128 3127 3125 3123 3121 3119 3117 3114 3112 3108 3106 3104 3101 3099 3096 3092 3093 3092 3084 3081 3081 3079 3078 3077 3076 3075 3074 3072 3071 3069 3069 3068 3067 3066
3161 3162 3162 3162 3162 3162 3162 3162 3162 3162 3162 3162 3162 3161 3161 3161 3161 3160 3160 3163 3165 3164 3163 3163 3162 3161 3160 3159 3159 3158 3157 3156 3155 3154 3153 3152 3151 3150 3149 3148 3147 3146 3145 3145 3144 3142 3140 3138 3136 3134 3133 3131 3130 3129 3128 3126 3124 3122 3120 3117 3116 3113 3109 3106 3104 3101 3102 3100 3095 3092 3093 3091 3084 3080 3081 3079 3077 3076 3074 3073 3072 3071 3070 3069 3067 3066 3065 3063
3163 3163 3163 3163 3163 3163 3163 3163 3163 3163 3163 3162 3162 3162 3161 3161 3161 3160 3161 3164 3165 3165 3164 3164 3163 3162 3161 3160 3159 3158 3158 3157 3156 3155 3154 3153 3151 3150 3149 3149 3147 3146 3145 3144 3144 3142 3140 3138 3136 3134 3133 3131 3130 3129 3127 3126 3123 3121 3119 3116 3113 3109 3106 3104 3102 3101 3102 3097 3093 3092 3092 3093 3087 3080 3080 3079 3077 3076 3073 3072 3072 3071 3069 3067 3065 3064 3062 3060
3164 3164 3164 3164 3164 3164 3164 3164 3164 3163 3163 3163 3163 3163 3162 3162 3161 3161 3164 3166 3166 3165 3165 3164 3163 3163 3162 3161 3160 3159 3158 3158 3156 3155 3154 3153 3152 3151 3150 3148 3147 3146 3145 3144 3143 3141 3139 3137 3136 3135 3133 3131 3129 3128 3126 3124 3122 3120 3118 3115 3112 3107 3104 3102 3100 3102 3100 3093 3091 3091 3091 3092 3088 3079 3078 3078 3077 3075 3073 3072 3071 3070 3069 3066 3064 3061 3058 3057
3165 3165 3165 3165 3165 3165 3165 3165 3165 3164 3164 3164 3163 3163 3163 3163 3163 3164 3166 3166 3166 3166 3166 3165 3164 3163 3162 3161 3160 3159 3159 3158 3157 3155 3154 3153 3152 3151 3150 3148 3147 3146 3146 3144 3141 3140 3138 3136 3135 3134 3132 3130 3128 3126 3124 3122 3120 3119 3117 3116 3113 3109 3106 3104 3100 3099 3096 3091 3090 3091 3090 3089 3083 3077 3076 3076 3075 3074 3073 3072 3071 3070 3067 3065 3063 3059 3056 3055
3167 3166 3166 3166 3166 3166 3166 3165 3165 3165 3165 3165 3164 3164 3163 3164 3166 3167 3167 3166 3167 3167 3166 3166 3165 3164 3163 3162 3161 3160 3159 3158 3157 3156 3154 3153 3152 3151 3151 3150 3149 3148 3146 3144 3141 3139 3137 3135 3134 3133 3131 3130 3128 3126 3124 3122 3120 3119 3117 3117 3115 3112 3111 3107 3101 3097 3093 3091 3090 3089 3090 3085 3078 3076 3076 3074 3074 3073 3072 3071 3069 3068 3066 3064 3061 3057 3054 3053
3168 3168 3168 3168 3167 3167 3167 3166 3166 3166 3166 3165 3165 3165 3164 3165 3167 3168 3167 3167 3167 3167 3167 3166 3165 3164 3163 3163 3162 3161 3160 3159 3158 3156 3155 3154 3153 3153 3152 3151 3150 3149 3147 3144 3142 3140 3138 3136 3134 3133 3131 3129 3128 3126 3125 3122 3120 3118 3117 3117 3116 3116 3115 3110 3104 3099 3095 3093 3090 3088 3087 3082 3076 3076 3076 3073 3072 3072 3071 3069 3068 3066 3064 3062 3059 3056 3053 3052
3170 3170 3169 3169 3169 3168 3168 3168 3167 3167 3167 3166 3166 3166 3166 3167 3169 3169 3169 3169 3168 3168 3168 3167 3166 3165 3164 3164 3163 3162 3161 3160 3158 3157 3156 3155 3154 3154 3153 3151 3150 3148 3147 3145 3143 3141 3139 3137 3135 3133 3131 3130 3128 3126 3124 3122 3119 3117 3116 3117 3117 3116 3116 3112 3107 3103 3100 3097 3092 3086 3082 3079 3077 3077 3075 3073 3072 3072 3071 3069 3067 3065 3063 3060 3057 3055 3053 3051
3171 3171 3171 3171 3170 3170 3169 3169 3169 3168 3168 3167 3167 3167 3167 3169 3170 3170 3170 3170 3169 3169 3168 3168 3167 3166 3165 3164 3163 3162 3161 3160 3159 3158 3157 3156 3155 3154 3153 3152 3150 3148 3147 3146 3144 3142 3139 3135 3134 3133 3131 3129 3127 3125 3123 3121 3120 3118 3117 3117 3117 3116 3115 3112 3107 3103 3101 3098 3091 3084 3080 3078 3077 3076 3075 3074 3073 3072 3071 3068 3066 3064 3061 3058 3056 3053 3051 3049
3173 3172 3172 3172 3171 3171 3171 3170 3170 3169 3169 3169 3168 3168 3169 3170 3171 3171 3171 3171 3170 3170 3169 3168 3168 3167 3166 3165 3164 3163 3162 3160 3159 3159 3158 3156 3155 3154 3153 3152 3150 3149 3147 3146 3144 3143 3139 3133 3130 3131 3130 3128 3126 3123 3121 3120 3119 3118 3118 3117 3116 3114 3113 3111 3107 3103 3100 3094 3087 3084 3082 3079 3078 3077 3074 3073 3072 3071 3069 3066 3063 3061 3058 3056 3053 3051 3049 3045
3174 3173 3173 3173 3173 3172 3172 3172 3171 3171 3171 3171 3170 3170 3171 3172 3172 3172 3172 3171 3171 3171 3170 3169 3168 3168 3167 3166 3165 3164 3162 3161 3160 3159 3158 3157 3156 3155 3153 3152 3150 3149 3147 3146 3143 3142 3140 3132 3127 3129 3128 3126 3124 3121 3119 3119 3118 3118 3118 3117 3116 3114 3112 3111 3108 3103 3100 3095 3088 3086 3084 3080 3078 3077 3073 3072 3071 3068 3066 3063 3060 3058 3056 3053 3050 3047 3044 3040
3175 3175 3175 3174 3174 3174 3173 3173 3173 3172 3172 3172 3171 3172 3173 3173 3173 3173 3173 3172 3172 3171 3170 3170 3169 3168 3167 3166 3165 3164 3162 3161 3161 3160 3159 3158 3156 3155 3153 3151 3150 3148 3146 3145 3143 3141 3140 3135 3129 3127 3127 3125 3122 3120 3119 3118 3117 3117 3116 3116 3115 3115 3113 3111 3108 3103 3101 3096 3090 3088 3087 3081 3077 3076 3073 3071 3070 3067 3064 3060 3058 3055 3053 3050 3047 3043 3039 3036
3177 3177 3176 3176 3175 3175 3175 3174 3174 3174 3173 3173 3173 3173 3174 3175 3174 3174 3174 3173 3172 3171 3171 3170 3169 3169 3168 3167 3166 3164 3163 3162 3161 3160 3159 3158 3156 3154 3153 3151 3149 3148 3146 3144 3143 3140 3139 3137 3131 3126 3126 3125 3122 3121 3120 3118 3118 3117 3117 3116 3114 3113 3111 3108 3105 3102 3101 3098 3093 3092 3089 3081 3076 3075 3073 3071 3068 3066 3063 3059 3055 3053 3050 3047 3044 3041 3037 3032
3179 3178 3178 3177 3177 3177 3176 3176 3176 3176 3175 3175 3175 3175 3175 3175 3175 3175 3174 3174 3173 3172 3171 3171 3170 3169 3168 3167 3166 3164 3163 3162 3161 3160 3159 3158 3156 3154 3153 3151 3149 3147 3145 3143 3141 3139 3137 3136 3131 3127 3125 3124 3123 3121 3120 3119 3119 3118 3118 3116 3114 3112 3111 3108 3104 3101 3101 3099 3095 3094 3091 3079 3073 3074 3072 3069 3067 3065 3062 3058 3054 3050 3047 3044 3041 3038 3033 3029
3180 3180 3179 3179 3179 3178 3177 3177 3178 3177 3176 3176 3176 3176 3176 3176 3176 3175 3175 3174 3173 3172 3172 3171 3170 3169 3168 3167 3166 3165 3164 3162 3162 3161 3159 3157 3156 3155 3153 3151 3148 3146 3144 3142 3140 3139 3137 3134 3130 3127 3125 3123 3121 3120 3119 3118 3118 3118 3117 3114 3112 3110 3110 3109 3106 3103 3101 3098 3093 3093 3088 3075 3070 3073 3071 3068 3067 3064 3061 3057 3051 3047 3044 3041 3038 3034 3030 3026
3182 3181 3180 3180 3180 3179 3179 3179 3179 3178 3178 3177 3177 3177 3177 3177 3176 3176 3175 3175 3174 3173 3172 3171 3170 3169 3168 3167 3166 3165 3163 3163 3162 3160 3159 3157 3156 3154 3152 3150 3148 3146 3144 3142 3140 3138 3136 3133 3130 3126 3123 3121 3119 3118 3118 3117 3117 3117 3114 3112 3110 3108 3108 3107 3105 3102 3099 3094 3090 3089 3083 3072 3069 3071 3069 3066 3065 3062 3058 3054 3049 3045 3042 3038 3034 3030 3027 3023
3182 3182 3181 3181 3181 3181 3181 3180 3180 3179 3179 3179 3179 3178 3178 3178 3177 3176 3176 3175 3174 3173 3173 3172 3171 3169 3169 3168 3166 3165 3164 3163 3162 3160 3158 3157 3155 3154 3152 3150 3148 3146 3143 3141 3139 3138 3136 3134 3131 3128 3123 3120 3117 3116 3117 3116 3115 3115 3113 3110 3106 3104 3104 3102 3099 3099 3096 3089 3087 3086 3079 3070 3069 3069 3066 3064 3062 3059 3055 3051 3047 3043 3039 3035 3031 3027 3023 3019
3183 3183 3182 3182 3182 3182 3182 3181 3181 3181 3180 3180 3180 3179 3179 3178 3178 3177 3176 3175 3174 3174 3173 3172 3171 3170 3169 3168 3167 3166 3164 3163 3162 3160 3158 3156 3155 3153 3151 3149 3147 3145 3143 3141 3139 3137 3135 3133 3132 3130 3128 3124 3120 3119 3120 3117 3114 3113 3110 3107 3103 3101 3100 3098 3097 3098 3094 3088 3086 3083 3075 3068 3067 3066 3063 3062 3059 3055 3051 3047 3043 3041 3037 3032 3028 3024 3020 3015
3184 3183 3183 3183 3183 3183 3182 3182 3182 3181 3181 3181 3180 3180 3179 3179 3178 3177 3177 3176 3175 3174 3173 3172 3171 3170 3169 3168 3167 3166 3164 3163 3161 3160 3158 3156 3154 3152 3150 3149 3147 3145 3143 3141 3139 3136 3134 3132 3131 3130 3129 3127 3124 3122 3122 3119 3115 3111 3106 3103 3101 3099 3097 3096 3096 3096 3093 3089 3083 3078 3074 3068 3064 3063 3060 3058 3055 3051 3046 3042 3039 3036 3032 3028 3025 3021 3017 3013
3185 3184 3184 3184 3184 3184 3183 3183 3183 3182 3182 3182 3181 3180 3180 3179 3179 3178 3177 3176 3175 3175 3174 3173 3171 3170 3169 3168 3167 3165 3164 3163 3161 3159 3157 3155 3154 3152 3150 3148 3146 3144 3142 3140 3138 3136 3133 3130 3129 3127 3126 3125 3123 3121 3120 3117 3113 3108 3103 3100 3099 3098 3095 3093 3093 3092 3091 3088 3080 3073 3072 3067 3061 3059 3057 3054 3051 3047 3043 3039 3036 3032 3029 3024 3021 3017 3014 3011
3186 3185 3185 3185 3185 3185 3185 3184 3184 3184 3183 3183 3182 3181 3181 3180 3179 3179 3178 3177 3176 3175 3174 3173 3171 3170 3169 3168 3166 3164 3163 3161 3160 3158 3157 3155 3153 3151 3149 3147 3145 3144 3142 3140 3138 3135 3132 3130 3128 3125 3122 3121 3121 3119 3116 3114 3109 3104 3101 3099 3097 3095 3092 3090 3089 3087 3087 3084 3076 3070 3068 3063 3058 3057 3054 3051 3049 3045 3041 3037 3034 3030 3026 3021 3017 3014 3010 3007
3187 3187 3187 3187 3187 3186 3186 3186 3185 3185 3185 3184 3183 3182 3182 3181 3180 3179 3178 3177 3176 3175 3174 3173 3172 3170 3169 3168 3166 3164 3162 3160 3158 3156 3155 3154 3152 3150 3148 3146 3144 3143 3141 3139 3137 3135 3132 3129 3127 3124 3119 3116 3116 3114 3112 3109 3105 3100 3098 3097 3095 3092 3089 3087 3085 3084 3082 3077 3071 3068 3064 3059 3057 3054 3050 3047 3046 3043 3039 3036 3032 3028 3023 3018 3014 3011 3007 3004
3190 3189 3189 3190 3189 3188 3188 3187 3187 3186 3186 3185 3184 3183 3182 3181 3180 3180 3179 3178 3177 3175 3174 3173 3172 3170 3169 3167 3166 3164 3162 3160 3158 3156 3154 3153 3151 3149 3147 3145 3144 3142 3141 3139 3137 3135 3132 3129 3127 3123 3117 3113 3112 3111 3108 3105 3101 3097 3095 3094 3091 3088 3086 3084 3082 3081 3078 3073 3069 3067 3062 3056 3054 3052 3048 3045 3043 3040 3036 3031 3027 3024 3020 3016 3012 3008 3005 3002
3192 3191 3191 3191 3190 3189 3189 3189 3188 3188 3187 3186 3185 3184 3183 3182 3181 3180 3179 3178 3177 3176 3174 3173 3172 3171 3169 3167 3166 3164 3162 3161 3159 3156 3154 3152 3150 3149 3147 3145 3143 3142 3140 3138 3136 3134 3132 3128 3125 3123 3116 3111 3110 3108 3105 3102 3098 3094 3093 3091 3088 3086 3083 3081 3079 3077 3074 3071 3067 3064 3060 3054 3052 3050 3045 3042 3039 3036 3032 3027 3023 3020 3017 3013 3009 3006 3002 2999
3194 3192 3192 3192 3192 3191 3191 3190 3190 3189 3188 3187 3186 3185 3184 3183 3182 3181 3180 3179 3177 3176 3175 3173 3172 3171 3169 3167 3165 3164 3162 3160 3158 3156 3154 3152 3150 3149 3147 3145 3144 3142 3140 3138 3136 3134 3132 3128 3125 3123 3117 3110 3108 3105 3101 3098 3095 3092 3091 3089 3086 3083 3080 3077 3076 3074 3071 3069 3065 3061 3057 3053 3050 3046 3041 3036 3034 3031 3028 3023 3019 3016 3012 3009 3006 3002 2999 2995